Starlink 2387

operational
NORAD ID: 47806 Int'l Des: 2021-018 Owner: SPXS Country: US Constellation: starlink
LEOCIRCULAR

About Starlink 2387

Description loading...

Live Position

Loading 3D Globe...

Upcoming Passes

Altitude History

Altitude vs Time

uPlot chart will show altitude changes over time

Two-Line Element Set

1 47806U 21018V 26101.38067442 .00008730 00000-0 30643-3 0 9998
2 47806 53.1593 90.5980 0000459 80.2932 279.8121 15.30210779281798
Epoch: Apr 11, 2026 • Age: 20 hours

Current Status

Altitude 483.4 km
Velocity 7.62 km/s
Sub-Earth Point -27.40°S, 143.11°E
Launch Date Mar 11, 2021
Age 5 years
Type internet

Technical Details

Classification Payload
Mass 260.00 kg
Dry Mass 248.00 kg
Total Mass 260.00 kg
Length 0.20 m
Diameter 2.80 m
Span 9.00 m
Shape Box + pan
Manufacturer SPXS
Bus Type Starlink
Phase Status In Orbit
Owner/State SPXS/US

Large Constellations

Loading constellations...